RH
91 93 93 98 98 99 99 98 98 98 98 98 98 98 97 97 97 96 97 94 90 83 73 72 75 75 77 75 74 75 78 75 76 76 76 76 77 77 76 74 72 72 71
87 88 90 96 97 96 98 98 99 99 98 98 98 98 95 93 94 95 93 89 89 87 82 74 75 76 74 76 74 76 79 79 76 77 77 78 78 80 79 76 75 74 74
95 86 90 94 90 96 95 97 99 99 99 99 99 98 96 95 94 92 92 91 88 88 87 78 79 79 77 73 74 74 73 81 82 82 82 79 82 83 81 80 77 77 76
93 95 92 94 93 97 97 97 98 99 99 100 99 99 99 99 97 93 86 87 84 76 80 88 84 79 78 76 71 72 77 79 83 84 84 84 84 85 85 82 79 78 77
92 96 96 93 96 96 98 97 96 96 98 98 98 98 98 99 98 96 98 95 82 72 69 75 90 88 82 80 76 75 76 79 82 85 85 85 86 86 87 84 84 80 78
89 92 94 95 96 96 97 98 98 97 97 95 95 96 97 97 98 98 96 93 95 87 73 70 69 82 89 83 79 77 76 76 80 83 86 86 87 87 88 86 85 80 79
92 93 94 94 95 98 97 96 96 98 97 97 98 97 96 96 96 95 96 97 96 93 88 79 71 71 71 88 85 79 76 75 76 79 84 86 87 87 87 87 87 83 80
92 89 93 94 93 95 93 95 94 96 96 96 97 96 96 88 95 95 96 94 95 92 91 82 74 70 69 69 77 86 81 78 76 75 78 85 87 88 87 86 86 83 84
87 90 91 93 94 95 96 95 96 95 97 92 92 97 95 97 88 85 95 98 97 96 94 89 83 74 65 64 68 72 86 85 79 75 73 79 84 87 88 86 85 86 83
82 82 84 86 92 95 96 94 93 95 95 97 96 91 94 93 90 90 82 79 75 79 82 84 86 82 77 72 68 71 74 84 82 76 72 71 74 82 84 84 85 85 85
70 73 78 82 83 85 90 92 94 94 94 94 94 94 91 93 93 95 93 88 75 65 69 72 74 80 81 76 71 70 78 76 75 76 73 72 71 76 81 83 84 82 84
71 66 66 72 74 82 84 86 86 88 90 91 93 89 92 95 94 94 91 88 92 79 71 71 81 79 78 77 78 76 77 76 76 75 69 72 71 70 72 80 83 82 81
66 67 68 71 73 74 77 83 86 86 90 94 96 97 93 88 88 88 93 91 92 83 86 80 82 85 86 88 85 85 82 79 77 74 68 69 72 73 72 70 81 83 82
68 62 62 62 61 59 68 72 84 80 85 93 93 92 93 94 93 88 84 93 94 87 83 84 86 90 87 86 91 92 91 85 82 78 76 74 74 78 76 79 79 82 82
45 60 62 63 63 61 66 67 77 74 83 87 93 90 87 92 93 92 94 94 96 96 91 84 90 83 87 87 85 90 92 93 88 86 83 84 88 88 85 81 77 74 78
53 54 55 57 59 60 68 71 76 74 75 82 77 81 81 84 88 92 92 92 92 96 95 81 82 87 87 80 82 87 90 95 95 94 92 95 93 92 89 88 88 83 85
52 50 51 52 53 54 58 67 69 70 72 74 75 76 76 75 87 90 92 92 92 92 97 86 81 80 83 88 87 84 89 92 93 93 95 98 99 96 95 96 96 94 92
53 54 52 54 55 56 56 64 65 69 72 73 73 76 74 59 83 85 88 91 92 90 95 93 82 85 88 84 83 90 90 88 88 87 93 95 97 99 99 98 98 98 98
57 56 56 59 60 60 58 55 63 68 71 72 74 74 73 76 80 84 85 92 87 85 94 91 87 82 86 85 87 84 82 86 79 81 92 95 94 95 96 98 99 98 98
57 58 59 61 63 63 59 60 67 70 72 71 73 73 75 77 82 83 76 82 77 93 91 94 90 86 89 80 88 91 88 87 85 76 86 86 88 89 93 95 98 98 100
59 62 63 65 68 62 49 68 71 73 75 75 73 71 72 72 63 66 66 86 88 91 93 94 94 93 90 90 91 89 86 87 86 95 83 78 81 84 91 91 95 97 99
63 65 68 70 71 54 59 57 59 73 74 78 77 78 77 69 74 66 68 64 67 83 90 92 95 91 91 94 92 90 89 86 88 87 83 79 79 85 83 86 92 95 96
67 67 70 72 74 72 58 55 56 67 72 75 77 80 74 61 78 78 74 68 73 68 68 80 92 92 91 88 90 95 93 90 88 78 88 89 83 93 89 88 90 90 94
66 70 72 75 77 64 60 58 59 76 80 79 78 82 84 83 81 67 74 81 84 86 86 79 90 90 91 88 92 85 91 94 90 86 88 95 82 86 84 89 79 88 92
72 75 75 77 76 75 64 61 66 82 78 79 76 79 79 77 70 63 68 88 87 85 70 67 67 70 71 70 74 85 93 97 90 82 84 94 95 91 96 96 95 90 89
66 74 69 74 69 75 68 65 66 81 84 78 80 78 72 65 65 64 65 79 80 88 82 82 85 83 86 91 78 88 91 99 96 95 94 92 89 94 94 94 86 90 87
Wind_Speed
4 4 5 4 4 4 5 6 6 6 6 7 7 8 8 9 8 5 4 10 14 17 19 21 19 21 20 19 19 19 17 18 17 16 15 15 14 13 13 12 12 12 12
5 5 5 6 6 5 5 5 5 6 7 6 7 8 9 8 8 8 6 6 12 16 18 21 23 22 22 21 21 20 19 19 19 18 18 18 17 16 15 14 14 14 14
5 7 6 5 6 6 7 5 4 1 4 4 6 4 6 8 7 8 8 7 6 12 17 21 22 23 23 23 23 22 21 20 20 20 19 19 18 17 18 16 16 16 15
6 6 5 6 5 4 4 3 3 3 5 5 4 4 4 4 6 7 7 6 7 7 11 19 22 23 24 24 25 25 23 22 22 22 22 21 20 19 19 19 17 17 16
7 6 5 6 4 3 3 3 3 3 4 4 4 4 4 4 6 5 8 8 10 10 8 12 18 21 22 24 27 27 25 24 24 24 23 23 22 21 21 21 19 19 18
8 7 4 4 3 2 3 3 4 3 4 3 3 4 4 4 4 6 8 8 8 10 10 11 9 10 21 25 27 29 28 26 25 25 25 25 24 24 23 23 21 21 21
8 8 6 6 5 3 3 3 2 3 2 2 2 3 4 5 7 7 6 6 8 9 10 10 9 8 9 22 26 29 29 28 28 26 26 26 26 26 25 24 24 22 23
10 8 8 6 8 4 7 8 7 4 3 1 1 2 4 4 3 4 4 6 9 7 8 10 11 12 11 10 12 25 30 30 30 29 28 27 27 26 27 26 25 25 23
12 11 10 8 7 5 6 5 6 6 3 5 10 3 2 3 7 3 5 5 7 6 8 10 11 12 13 12 13 15 23 28 31 31 30 29 28 28 28 28 27 26 25
11 11 11 9 8 7 7 5 6 5 3 4 3 7 5 5 5 8 2 5 6 9 11 10 10 12 12 10 14 17 18 23 28 31 33 32 31 29 30 29 28 27 26
9 10 10 9 8 6 6 8 7 7 7 4 4 4 3 5 2 4 7 5 7 8 9 9 11 10 12 12 12 15 19 25 28 30 33 34 32 32 31 30 29 28 28
5 8 8 7 7 7 7 7 8 8 7 3 4 5 4 4 5 4 5 10 7 5 12 11 10 10 11 13 16 22 22 24 27 29 33 32 31 30 32 30 30 30 29
4 6 6 6 5 5 5 6 4 4 6 4 4 2 4 3 3 5 6 7 6 5 4 7 10 8 12 13 14 16 18 23 25 28 32 33 31 31 31 30 29 29 30
3 5 4 4 5 5 4 5 4 4 4 3 4 4 4 3 4 3 4 6 9 5 5 3 3 8 10 12 15 27 13 15 21 25 29 30 29 21 24 24 24 31 29
5 6 6 6 6 6 5 5 4 4 4 4 5 5 3 3 3 1 3 4 6 6 8 4 6 10 11 10 16 14 14 23 19 21 23 22 19 19 21 25 25 27 24
4 5 6 6 7 7 6 6 5 5 6 4 4 5 5 4 4 3 3 5 3 6 8 7 9 12 12 10 15 15 13 20 25 17 17 16 18 19 17 20 16 19 18
4 5 5 5 5 5 5 3 4 3 4 4 4 5 5 5 3 4 4 5 4 5 6 9 9 10 12 12 12 13 11 11 11 24 24 17 16 22 20 14 13 15 13
3 4 5 5 5 5 5 3 5 4 4 5 5 5 6 6 6 5 4 5 5 5 5 12 11 9 12 13 13 12 9 9 12 19 24 21 19 10 10 10 11 10 11
4 4 4 5 5 5 5 5 4 4 3 4 5 5 6 6 5 5 6 5 4 4 3 5 9 8 8 9 12 10 10 9 9 20 18 17 20 18 15 8 9 13 13
4 5 5 5 5 6 6 6 5 5 4 4 4 5 5 5 6 6 6 6 6 4 3 3 5 7 6 9 7 9 11 9 11 10 12 17 20 19 17 15 10 8 8
2 3 3 5 5 5 4 5 4 4 4 5 5 5 5 8 12 12 7 6 6 4 3 4 4 4 6 8 9 8 8 9 10 3 8 9 10 10 7 11 9 12 10
3 2 3 3 4 3 9 10 8 3 4 4 4 5 5 8 8 15 15 15 11 6 4 3 3 6 6 6 4 6 7 8 8 2 11 10 7 8 8 7 14 15 14
2 3 4 4 5 5 9 10 11 2 3 4 5 5 5 5 9 7 12 13 11 14 13 9 7 6 7 6 6 5 4 6 8 10 9 9 6 7 6 7 14 18 17
3 3 3 4 4 4 10 10 11 3 3 5 5 5 5 6 6 11 7 5 6 6 6 6 6 8 8 8 6 6 4 6 6 7 4 7 6 9 8 7 14 12 15
2 2 3 4 4 5 9 12 10 4 5 6 5 6 6 6 13 18 9 6 7 7 11 17 17 19 19 20 16 7 5 4 7 7 2 3 4 7 5 5 4 10 14
4 3 4 3 6 5 9 11 9 3 4 4 6 5 13 13 18 19 11 9 9 8 10 10 6 9 10 11 17 6 3 4 5 4 2 4 6 5 7 4 6 6 8
Wind_Direction
277 281 273 267 259 251 240 226 217 214 219 213 211 216 216 220 220 228 232 236 241 243 248 250 246 236 231 233 235 236 231 235 236 236 235 234 235 236 238 237 237 236 236
272 269 274 266 259 249 252 241 210 213 221 208 209 212 226 229 225 226 233 241 238 244 244 245 250 245 238 234 234 237 238 233 235 236 236 236 235 236 236 238 236 237 237
258 272 269 268 267 255 255 262 247 259 256 213 221 221 228 234 234 234 236 237 240 238 243 251 245 243 239 238 239 236 237 235 233 233 233 236 237 235 236 235 237 235 238
278 270 267 260 263 272 268 256 242 216 243 233 230 222 226 217 230 229 235 233 235 241 240 241 241 238 240 239 242 244 238 233 230 229 230 232 232 234 232 233 235 235 235
303 280 276 274 256 239 256 275 277 230 209 240 238 250 242 227 226 231 235 235 235 238 240 239 235 234 228 234 238 241 239 236 233 230 230 230 230 230 232 232 229 232 229
8 355 316 310 300 264 255 246 244 261 251 248 257 260 254 246 236 228 234 237 241 241 240 243 243 236 232 232 236 239 239 238 238 234 230 230 231 230 228 228 229 233 229
12 23 10 13 2 342 0 331 353 265 286 303 302 311 268 246 242 237 236 239 240 241 244 241 238 239 238 234 238 238 240 237 236 234 234 231 231 231 229 228 225 224 230
12 30 18 21 16 31 44 8 32 336 282 18 11 250 303 319 278 269 268 253 250 255 254 246 245 244 242 240 231 235 238 240 238 238 235 235 233 231 231 230 225 225 224
14 15 22 20 24 27 65 55 4 41 53 350 356 313 304 262 328 236 242 238 244 242 247 252 249 244 242 240 241 234 232 238 237 238 237 235 235 233 233 230 227 224 223
19 18 18 26 26 16 23 43 34 18 70 50 340 8 347 324 300 305 296 315 304 272 259 253 246 245 245 243 242 235 232 229 238 241 241 238 235 234 233 230 228 226 223
30 24 17 20 26 22 18 31 28 19 39 26 14 354 337 308 18 306 306 333 313 312 314 276 259 253 243 241 242 243 233 234 236 242 245 240 235 234 234 234 229 227 223
19 17 20 20 15 16 15 21 28 17 26 18 28 17 340 320 350 320 305 315 304 311 303 293 268 252 249 246 240 236 234 233 235 237 244 247 238 239 236 233 232 229 225
18 14 21 20 19 9 9 15 34 29 30 19 15 329 307 336 333 299 308 318 305 300 283 303 323 343 2 338 315 265 242 240 239 241 243 250 249 244 234 236 237 234 232
7 7 11 24 25 21 27 23 31 30 351 334 326 346 341 332 310 17 324 308 312 295 285 271 304 25 3 339 336 341 299 254 245 243 244 247 248 246 233 227 236 243 233
357 4 6 10 11 19 30 32 43 26 10 359 0 341 316 294 292 318 293 289 302 318 310 294 342 4 343 330 333 330 338 331 261 241 241 243 248 244 250 229 233 231 232
356 359 359 3 4 7 12 22 16 12 18 357 358 341 329 315 314 317 300 291 303 282 288 335 327 334 329 330 322 339 333 330 352 285 249 249 246 242 240 221 213 225 221
357 2 357 357 1 357 358 13 359 23 19 357 348 347 324 320 324 314 294 285 270 285 291 313 318 318 328 320 324 343 336 331 345 342 357 304 244 232 224 201 199 214 210
349 351 355 357 351 346 343 341 346 344 3 358 343 342 329 338 320 309 301 295 300 303 322 313 319 323 325 333 338 319 353 344 349 332 339 339 6 304 214 200 198 204 204
348 355 3 358 345 334 336 333 320 318 335 337 337 335 321 324 321 312 311 303 305 307 301 306 311 316 316 332 331 340 345 338 343 330 333 351 6 3 354 320 229 212 211
0 354 349 339 336 325 322 320 322 326 321 319 323 324 313 317 302 309 314 306 305 294 294 294 304 314 322 332 327 344 343 351 339 323 354 353 356 349 350 355 341 312 265
327 306 323 334 331 319 309 306 310 302 286 304 319 324 320 320 338 331 322 307 308 285 299 302 300 299 316 335 345 335 331 330 329 333 351 342 335 326 340 339 342 345 320
294 310 322 312 319 313 311 327 328 320 306 291 292 305 303 310 320 332 328 327 332 325 294 291 280 302 299 304 314 322 328 336 333 339 332 319 315 314 312 318 318 319 319
309 299 303 319 317 311 323 330 327 14 334 310 305 304 306 312 324 301 303 320 328 327 319 314 295 283 294 290 297 298 299 306 302 303 313 306 314 300 310 306 311 313 315
278 293 301 314 315 308 328 329 330 6 324 302 294 291 290 295 298 311 298 307 302 292 290 289 269 276 268 275 258 276 276 290 289 288 297 296 308 301 295 290 286 293 311
282 271 280 297 303 299 323 324 326 329 311 305 302 302 300 298 305 312 312 296 294 287 294 300 300 301 303 309 310 309 311 308 305 303 273 252 332 328 307 308 334 355 346
253 259 280 278 293 305 313 315 317 291 292 291 291 278 300 311 311 310 308 304 300 289 292 292 290 298 293 292 299 278 257 269 284 310 274 358 340 13 321 299 339 348 343